一网星座-0678星 (ONEWEB-0678)

导读 | 星芒AI

ONEWE-0678 是 OneWeb 卫星通信星座计划中的一颗低轨通信卫星,旨在为全球提供高速互联网服务。该卫星由阿丽亚娜集团制造,搭载先进通信载荷,支持高带宽数据传输。作为 OneWeb 卫星群的一部分,它运行在约 1200 公里的近地轨道,与其他卫星协同工作,构建全球覆盖的通信网络。该计划致力于弥合数字鸿沟,为偏远地区提供稳定、高效的互联网接入。

基本信息
目录编号:
56714
目录名称:
ONEWEB-0678
国际标识:
2023-068E
轨道中心:
EARTH
卫星名称:
一网星座-0678星
卫星全名:
一网星座-0678星 (ONEWEB-0678)
卫星状态:
在轨 (已飞行941 天)
发射日期:
2023-05-20 UTC
国别 :
英国 (GB)
星等 :
--
轨道信息
数据来源 国际轨道数据 AOE轨道数据
星历时间 2025-12-15T15:54:23+0800
18小时前
查看轨道信息
2025-12-10T07:00:00+0800
6天前
查看轨道信息
半长轴 7579.905km 7579.904km
偏心率 0.0002102 0.0001757
轨道倾角 87.900° 87.899°
近地点辐角 73.792° 69.652°
升交点赤经 295.871° 296.940°
平近点角 286.344° 67.603°
近地点 1200.176km 1200.437km
远地点 1203.364km 1203.101km
周期 109.460分钟 109.460分钟
每日圈数 13.155493 13.155497
详细信息
平衡模式:
三轴稳定
覆盖范围:
全球
运营商:
一网卫星公司
运营商所在国:
英国
制造商(研发单位):
一网卫星公司
制造商所在国:
英国
使用方式:
暂无
卫星简介
OneWeb卫星网络由648颗重约125公斤的微型卫星组成,运行在1200公里的轨道上。 每颗卫星都能够提供至少每秒8千兆位的吞吐量,以使用其高吞吐量的Ku频段有效载荷为家庭和移动平台提供互联网接入。该卫星仍在工作。
2D轨道图
3D轨道图
轨道高度分析图
轨道倾角分析图
轨道综合分析图
查看轨道综合分析图